Zurück zum Katalog

STARLINK-31449

AktivKommunikationVLEO
NORAD 58966·PAYLOAD·🇺🇸 United States

Gestartet Feb 15, 2024 von Vandenberg Space Force Base

Loading…

Nächste Überflüge (nächste 24 Stunden)

TLE

AktuellSource: CelesTrak SupGP

Epoche: Sep 15, 2026, 03:02 UTC

1 58966C 24031B   26258.12687500  .00035395  00000+0  10459-2 0  2589
2 58966  53.1563 134.6252 0001278  82.7135  47.8613 15.34367927    13

Verfolge STARLINK-31449 in Echtzeit mit AllMySat

Download on the App Store